sat.trackr.live / text

‹ back to catalog

SITRO-AIS 41

NORAD 61760 · 2024-199AB

PAYLOAD ACTIVE UNKNOWN

§ Identity

Operator
Country
CIS
Launch date
2024-11-04
Launch site
VOSTO
Launch vehicle
Mass (kg)
RCS (m²)

External: N2YO · Heavens-Above · Gunter

§ Orbital elements

Epoch: 2026-05-25T04:38:50.318016Z

Period
92.08 min
Inclination
97.2969°
Eccentricity
0.0003799
Mean motion
15.63937197 rev/d
Perigee alt
373.7 km
Apogee alt
378.9 km
Semi-major
6,754.4 km
B*
7.8522e-4
RAAN
23.3891°
Arg perigee
29.0193°
Mean anomaly
331.1276°
Rev number
13,417

§ Raw data

SITRO-AIS 411 61760U 24199AB  26145.19363794  .00074274  00000+0  78522-3 0  99952 61760  97.2969  23.3891 0003799  29.0193 331.1276 15.63937197134172

JSON: /api/v1/satellites/61760 · /tle

For live sub-satellite position, see the globe view (requires WebGL).

§ Visibility from observer

Set your observer location to see the next 7 days of passes ≥ 10°. The values pass through the URL so the page stays shareable.

No JS? Fill the form by hand. The geolocation button needs JavaScript.

§ Radio — SatNOGS DB

ModeDescriptionDownlinkUplink
GMSK USP Mode U - GMSK2k4 - USP 401.105 MHz

1 transmitter · refreshed weekly from db.satnogs.org